This demonstration page uses our WeatherBlox Daily Observations layout. Learn more.

39.08367, -84.50855

Hourly Observations for June 29, 2019

Temp ( °F °C ) Dew Point ( °F °C ) Humidity (%) Winds ( mph kmh ) Pressure ( in mb ) Visibility ( mi km ) Precip ( " mm )
12:53 am 00:53 Clear 74 23.3 70 21.1 88 88 SSW 5 7 30.12 1020 10 16.09344 0 0
1:53 am 01:53 Clear 73 22.8 69 20.6 87 87 SW 3 6 30.12 1020 10 16.09344 0 0
2:53 am 02:53 Clear 72 22.2 69 20.6 91 91 Calm 30.12 1020 10 16.09344 0 0
3:53 am 03:53 Clear 70 21.1 68 20 93 93 Calm 30.12 1020 10 16.09344 0 0
4:53 am 04:53 Clear 70 21.1 68 20 93 93 Calm 30.12 1020 10 16.09344 0 0
5:53 am 05:53 Clear 67 19.4 66 18.9 97 97 SSW 3 6 30.12 1020 9 14.484096 0 0
6:31 am 06:31 Mostly Sunny 68 20 66 18.9 93 93 Calm 30.12 1020 10 16.09344 0 0
6:53 am 06:53 Sunny 68 20 67 19.4 96 96 Calm 30.15 1021 10 16.09344 0 0
7:53 am 07:53 Sunny 71 21.7 68 20 90 90 SSW 3 6 30.15 1021 10 16.09344 0 0
8:53 am 08:53 Sunny 75 23.9 68 20 79 79 Calm 30.15 1021 10 16.09344 0 0
9:53 am 09:53 Sunny 80 26.7 70 21.1 71 71 Calm 30.15 1021 10 16.09344 0 0
10:53 am 10:53 Sunny 84 28.9 71 21.7 65 65 Calm 30.15 1021 10 16.09344 0 0
11:53 am 11:53 Partly Cloudy 86 30 71 21.7 61 61 Calm 30.12 1020 10 16.09344 0 0
12:53 pm 12:53 Partly Cloudy 88 31.1 71 21.7 57 57 SW 10 17 30.12 1020 10 16.09344 0 0
1:53 pm 13:53 Partly Cloudy 89 31.7 69 20.6 52 52 WSW 9 15 30.09 1019 10 16.09344 0 0
2:53 pm 14:53 Partly Cloudy 90 32.2 70 21.1 52 52 WSW 10 17 30.06 1018 10 16.09344 0 0
3:53 pm 15:53 Partly Cloudy 90 32.2 70 21.1 52 52 WSW 9 15 30.06 1018 10 16.09344 0 0
4:53 pm 16:53 Partly Cloudy 90 32.2 68 20 48 48 SW 6 9 30.03 1017 10 16.09344 0 0
5:53 pm 17:53 Mostly Sunny 87 30.6 68 20 53 53 WSW 12 19 30.03 1017 10 16.09344 0 0
6:53 pm 18:53 Mostly Sunny 88 31.1 68 20 52 52 WSW 12 19 30 1016 10 16.09344 0 0
7:53 pm 19:53 Partly Cloudy 87 30.6 68 20 53 53 W 7 11 30 1016 10 16.09344 0 0
8:53 pm 20:53 Mostly Sunny 82 27.8 69 20.6 65 65 SW 3 6 30.03 1017 10 16.09344 0 0
9:53 pm 21:53 Clear 77 25 71 21.7 82 82 Calm 30.03 1017 10 16.09344 0.001 0.001
10:53 pm 22:53 Clear 76 24.4 71 21.7 85 85 Calm 30.03 1017 10 16.09344 0 0
11:53 pm 23:53 Clear 77 25 70 21.1 79 79 Calm 30.03 1017 10 16.09344 0 0

Powered by AerisWeather